SCP
3 3 3 2 2 3 3 3 3 4 4 5 5 5 5 6 6 6 9 11 11 9 8 7 7 7 7 6 4 3 2 2 1 1 2 2 3 4 5 5 4 4 4
3 3 3 3 2 2 3 3 4 5 5 5 5 5 4 5 5 5 8 10 11 10 8 7 7 7 7 6 4 3 2 2 2 1 2 2 3 4 6 6 5 4 4
3 4 3 3 2 2 3 4 5 6 6 6 5 4 4 4 4 6 8 10 11 10 9 8 7 7 7 6 4 3 2 2 2 1 2 2 3 4 6 7 5 5 5
4 4 4 3 3 3 4 5 5 6 7 6 6 5 5 4 5 6 8 9 10 10 10 9 7 7 7 6 4 3 2 2 2 2 2 3 4 5 7 7 6 6 6
4 4 4 4 3 3 4 5 5 6 6 6 6 5 5 4 4 5 6 6 7 8 9 8 8 7 6 5 4 3 2 2 2 3 3 4 6 6 7 7 7 6 6
4 4 4 4 4 3 3 5 6 6 6 5 5 5 5 4 4 4 5 4 5 6 7 7 7 7 6 5 5 4 3 3 3 4 4 5 6 7 7 7 7 6 5
3 4 5 5 5 4 4 5 6 7 7 6 6 6 6 5 5 5 5 4 4 5 6 7 7 7 6 5 5 4 4 4 5 5 5 5 6 7 7 6 6 5 4
3 4 5 5 5 4 4 6 7 8 8 8 8 8 8 7 7 6 6 5 5 5 7 8 8 7 6 5 4 4 4 5 6 6 6 6 6 5 5 5 4 3 3
3 4 4 5 5 4 5 6 8 10 10 10 10 10 10 10 9 8 7 6 6 6 9 10 9 7 6 5 5 5 5 6 7 7 7 7 6 4 3 3 3 2 2
4 4 4 5 4 4 5 6 9 11 12 12 11 11 11 11 11 10 9 8 8 9 10 11 9 7 7 6 6 6 6 6 7 7 8 7 5 3 3 3 3 3 2
4 4 4 4 4 4 4 5 9 12 14 14 13 13 12 12 11 11 11 11 11 11 11 10 9 8 7 6 6 6 6 6 6 7 8 7 5 3 3 3 3 3 3
5 5 4 4 3 3 4 5 7 10 13 15 16 16 15 14 12 11 12 14 15 14 13 11 10 8 6 5 5 5 5 6 7 8 8 7 4 3 3 3 3 3 3
5 6 6 5 4 4 5 5 6 8 11 15 18 19 18 16 14 12 12 14 16 16 15 13 10 8 6 5 5 5 6 6 7 7 6 5 3 3 3 3 3 3 3
6 8 8 7 6 6 6 6 6 7 10 15 19 22 23 20 16 12 11 12 14 15 14 12 9 7 6 5 5 6 7 6 6 5 4 3 3 3 3 3 3 3 3
7 9 10 9 8 7 7 7 7 8 10 14 20 23 24 20 15 11 9 9 10 11 11 9 7 6 5 5 6 7 6 5 4 3 3 3 3 2 2 2 2 3 3
7 9 11 11 10 9 8 7 7 8 9 12 16 18 17 14 11 8 7 6 6 7 7 6 6 5 5 4 5 5 4 2 2 2 2 2 6 9 6 2 2 2 2
8 9 10 10 10 9 9 8 8 7 7 9 10 11 10 8 7 7 6 5 5 5 5 5 5 5 5 3 2 2 1 1 1 2 2 2 9 16 10 3 3 3 3
11 10 9 8 8 8 9 9 8 7 7 7 8 7 6 5 6 6 6 6 6 5 6 5 5 5 5 3 1 1 1 1 1 2 2 3 7 10 7 4 5 5 6
11 10 9 9 9 9 9 9 8 7 6 7 7 6 5 4 4 4 5 6 6 7 7 6 5 5 4 3 2 1 1 1 2 2 2 2 3 3 3 3 5 6 6
11 10 10 11 11 11 10 8 7 6 5 5 5 4 4 3 3 3 3 4 5 6 7 7 6 5 4 4 3 2 2 2 2 2 2 2 2 1 1 2 3 4 4
10 9 10 11 12 11 9 7 6 5 4 4 3 3 3 3 3 3 3 4 5 6 7 7 6 4 4 3 2 2 2 2 3 2 2 2 1 1 1 1 2 2 2
7 7 8 10 12 11 9 6 5 4 3 3 3 2 2 2 3 4 5 6 7 7 8 7 6 4 3 2 1 1 1 2 2 2 2 2 1 1 1 1 1 1 1
6 7 8 9 11 11 9 6 5 4 3 3 2 2 2 2 3 4 6 7 8 9 9 8 6 4 3 2 1 0 0 1 1 2 2 1 1 0 1 1 1 1 2
7 8 9 10 10 9 8 6 4 3 3 2 2 2 2 2 2 3 4 5 7 9 8 8 6 5 4 3 2 1 0 1 1 1 1 1 1 1 1 1 2 2 2
9 9 10 10 8 7 6 5 4 3 3 2 2 2 2 2 2 2 2 2 4 5 5 5 4 4 3 2 1 1 1 1 1 1 1 1 2 2 2 3 3 3 3
8 8 8 8 7 5 4 4 3 3 3 3 2 2 2 2 2 2 1 1 2 2 2 2 2 2 2 1 1 1 0 0 0 1 1 1 2 3 4 4 3 3 3
Wind_Speed
8 9 9 9 8 7 6 4 4 3 1 1 1 1 1 2 2 3 3 3 2 2 1 2 1 1 2 1 1 1 1 1 1 0 1 1 0 1 1 1 1 2 3
8 8 9 8 8 7 6 4 3 3 2 2 1 1 1 1 1 2 2 2 2 1 1 2 2 2 1 1 1 1 1 1 0 0 0 1 0 1 2 2 1 1 2
10 9 9 8 7 7 6 4 3 3 2 2 1 1 1 1 1 1 1 2 1 1 1 1 1 1 1 1 1 1 1 2 1 0 0 0 1 1 1 0 1 2 1
10 9 9 8 7 7 7 5 4 3 3 1 1 1 1 1 1 1 1 1 1 1 1 1 0 1 1 1 1 1 2 2 2 1 0 1 1 1 1 1 1 2 2
10 10 9 8 7 7 7 6 5 4 3 1 1 1 1 1 1 1 1 1 1 1 0 1 0 0 0 0 1 1 2 2 2 2 1 1 1 1 1 1 1 0 1
9 8 8 8 7 7 6 6 5 4 3 2 1 1 2 2 2 1 0 0 1 1 1 1 1 1 1 1 1 1 2 2 2 2 2 2 1 1 1 1 1 0 0
8 8 7 8 7 6 6 6 6 4 3 2 1 1 1 1 1 1 1 0 0 0 1 1 1 1 1 1 1 0 1 2 2 1 2 2 2 1 1 1 1 1 1
8 8 8 8 7 6 6 7 6 4 4 3 2 1 0 0 0 1 1 1 1 1 1 1 1 1 1 1 1 1 1 1 2 2 2 2 2 2 1 1 1 2 1
8 8 7 8 7 7 6 6 6 5 4 3 3 2 1 1 2 2 2 2 2 1 1 1 1 1 1 2 2 1 2 1 2 2 2 2 2 2 2 1 1 1 2
8 8 7 6 5 5 6 6 6 5 4 4 2 2 1 1 1 1 1 2 2 2 2 1 1 1 1 1 1 1 1 1 1 1 2 3 3 3 2 2 1 1 1
9 9 8 6 5 4 5 5 5 5 4 4 2 2 2 2 1 0 1 1 2 1 1 1 1 1 1 1 1 1 1 1 1 2 1 2 3 3 3 3 2 2 1
9 9 8 7 5 4 4 4 4 4 4 4 3 2 1 1 1 1 1 1 1 1 1 1 1 1 1 1 1 2 2 2 2 2 2 2 2 3 3 3 3 2 1
8 8 8 6 5 4 3 2 2 3 4 4 3 2 1 1 1 1 1 1 1 1 1 1 1 1 1 1 1 2 2 2 2 2 2 2 2 2 2 2 3 3 3
8 8 7 6 5 4 4 3 3 3 4 3 3 3 2 2 2 2 1 2 2 2 2 2 1 1 1 2 2 2 2 2 2 1 1 2 2 2 3 2 2 2 3
8 8 7 6 6 5 4 4 3 3 4 4 3 3 3 3 3 2 2 2 2 2 2 1 1 1 1 2 2 2 1 1 1 2 2 1 1 2 2 3 2 3 2
9 8 8 7 6 5 4 3 3 4 4 3 3 3 3 3 2 2 2 2 2 2 2 2 2 2 2 4 5 3 3 2 1 2 3 2 1 1 2 3 4 3 3
8 8 7 6 5 5 4 3 4 4 4 3 4 4 3 3 3 3 2 2 2 2 2 2 2 1 2 3 3 4 3 2 2 2 3 4 3 2 2 3 4 4 5
8 7 7 7 6 5 5 4 5 5 4 4 3 3 3 3 2 2 2 2 2 1 2 2 1 1 1 2 2 4 3 2 2 2 3 2 3 4 3 3 3 3 3
7 6 6 7 7 5 5 4 4 5 4 3 2 2 2 2 2 2 2 2 1 2 1 1 1 1 1 2 2 3 2 2 2 1 2 2 2 4 4 3 3 4 4
6 6 6 7 6 5 5 4 4 4 3 3 2 2 2 2 2 1 1 2 1 2 2 2 1 1 1 1 2 3 2 2 2 1 1 3 3 4 4 3 4 4 5
7 6 7 6 5 4 4 3 3 3 3 3 2 2 2 1 0 1 1 1 2 2 2 2 2 0 1 1 2 2 2 3 3 2 1 1 2 3 4 4 4 5 6
6 7 6 6 5 4 4 4 4 3 3 2 2 2 1 1 1 1 1 1 2 2 2 2 2 0 1 2 1 2 3 4 3 3 3 2 3 4 5 5 6 7 6
6 6 6 6 5 4 4 4 4 3 2 2 1 1 1 1 1 1 1 2 1 2 2 2 2 1 1 2 2 2 3 4 3 3 5 6 5 5 5 6 7 5 3
6 6 6 5 5 5 4 3 3 2 2 1 1 0 0 1 1 1 1 2 2 2 3 3 3 3 2 3 3 3 3 3 3 3 5 7 6 6 6 5 4 3 3
5 5 5 5 5 5 4 3 3 2 1 1 1 1 1 1 1 1 2 2 2 2 2 3 3 3 3 3 3 3 3 4 4 5 4 4 3 3 2 2 2 2 2
5 5 5 5 5 4 3 3 2 2 1 1 1 1 1 1 1 1 2 5 3 2 2 2 2 2 2 3 5 5 6 6 5 4 4 4 3 3 3 3 2 1 2
Wind_Direction
147 139 131 125 121 114 109 103 94 90 83 81 80 73 77 88 92 99 94 86 76 59 52 36 39 43 71 63 32 13 323 291 302 343 331 287 175 114 132 142 119 147 148
150 141 137 135 131 128 126 121 114 108 105 85 78 104 89 93 97 94 102 102 94 63 77 57 17 31 39 50 27 355 324 307 358 300 296 320 358 304 202 156 168 140 138
161 153 145 141 138 136 134 128 117 104 90 88 91 88 101 90 73 105 116 114 108 83 56 71 44 5 32 45 325 326 338 327 316 54 90 357 328 296 276 187 144 139 127
158 155 148 145 147 137 131 123 119 111 98 90 54 44 74 60 47 73 92 110 104 103 103 102 82 335 20 30 321 21 332 319 323 316 293 153 147 264 300 304 200 165 148
157 156 153 153 148 137 133 125 118 112 108 96 60 24 16 31 50 51 89 115 127 109 135 132 102 42 16 25 353 355 337 342 343 337 333 329 275 256 233 265 291 283 136
149 149 149 145 144 140 135 131 123 116 117 112 76 48 1 16 20 359 1 201 138 139 125 98 82 64 16 18 353 343 334 337 348 342 345 348 332 323 315 299 294 279 185
149 147 151 148 146 144 138 132 132 134 136 136 120 97 358 344 333 313 326 338 18 72 76 52 66 38 20 355 347 312 327 340 341 331 327 323 322 321 333 334 320 315 279
153 155 157 152 151 150 144 137 139 144 144 140 130 108 94 297 331 344 348 6 354 39 70 88 83 55 7 351 16 349 338 348 335 329 329 313 322 319 339 330 326 322 320
153 152 154 153 156 154 150 146 144 145 146 146 137 131 122 21 18 23 5 12 358 22 66 80 73 43 13 2 23 5 356 4 339 334 335 327 322 323 329 321 332 313 305
146 144 143 143 142 147 151 149 147 148 143 142 158 148 149 115 77 23 15 7 14 28 37 26 45 48 12 8 359 357 353 341 333 321 344 340 344 338 336 330 318 292 271
146 144 139 133 136 144 143 151 153 152 149 154 152 139 142 145 141 65 356 5 16 24 10 358 1 27 37 12 349 338 351 330 323 325 4 354 353 347 344 342 329 316 321
132 131 127 125 129 126 129 146 155 158 151 140 134 122 110 120 127 93 19 26 40 33 10 359 350 358 43 34 6 334 336 329 335 340 5 355 355 351 342 339 332 326 315
122 122 119 118 117 115 107 120 126 128 130 128 131 118 101 77 58 61 39 11 24 17 9 3 2 351 18 14 351 328 321 326 335 344 3 353 351 340 337 335 332 325 325
126 122 121 122 117 112 106 95 95 98 104 104 102 96 83 62 51 39 39 35 30 31 14 355 352 2 32 355 337 318 307 326 330 347 352 333 333 339 329 325 335 327 326
140 132 131 126 124 116 106 98 92 84 83 88 86 85 79 69 59 42 39 39 28 27 19 344 348 337 7 350 341 313 308 304 302 322 321 325 30 37 347 336 336 331 324
141 135 132 126 118 116 112 112 101 91 88 86 79 74 63 60 55 39 39 32 27 21 5 339 349 350 351 12 24 8 328 323 321 319 313 305 322 351 325 313 310 308 301
134 131 130 122 121 116 103 110 108 98 90 79 72 69 61 58 43 28 42 30 22 10 348 345 357 23 7 11 10 351 325 335 339 328 320 318 346 11 334 301 285 285 275
124 132 133 125 118 112 106 105 102 98 89 80 76 78 68 60 46 39 32 15 5 350 344 330 328 330 350 14 354 328 296 304 314 317 316 320 332 338 335 305 305 300 295
118 123 125 123 115 111 106 104 106 104 95 86 81 76 65 55 50 38 19 354 344 330 309 314 349 323 331 358 347 313 281 281 287 304 335 324 332 346 339 314 305 307 305
117 120 117 116 112 108 106 109 108 98 88 77 68 63 60 43 33 35 3 350 328 311 313 330 344 341 8 21 359 323 295 304 310 325 348 18 2 346 344 323 308 302 304
120 118 110 107 106 109 113 112 97 84 76 74 66 56 53 35 83 60 2 326 315 321 316 306 301 321 88 71 23 349 324 326 322 322 316 329 337 321 304 296 290 290 299
122 119 113 111 109 113 114 107 89 80 78 79 68 48 13 325 37 15 317 296 290 293 300 300 296 342 107 80 38 341 316 320 321 319 324 325 315 305 294 286 290 297 302
124 118 113 110 108 110 108 104 91 87 81 70 55 26 356 355 17 338 321 306 304 312 320 323 325 346 38 71 45 346 324 332 320 327 332 321 302 293 285 276 286 291 291
128 123 121 116 110 106 99 95 95 92 87 80 69 5 302 326 14 347 338 347 348 339 340 342 343 356 10 20 6 342 328 317 305 310 306 290 274 271 278 285 280 269 285
122 121 120 121 115 105 97 97 97 94 64 28 0 305 311 321 330 349 359 352 25 25 354 349 348 343 347 357 350 339 332 330 335 324 299 293 292 279 280 279 277 286 308
118 114 113 116 114 113 107 101 101 90 50 349 326 318 326 347 328 335 23 32 30 54 65 25 359 3 3 336 340 337 329 321 323 318 297 298 302 310 311 307 300 295 307